Jeudi 29 octobre 2020   -   semaine 44                    on fête: Narcisse                    soleil  (-2 mn) lever du soleil 07:23:00 coucher du soleil 17:36:00                    lune Lune gibbeuse croissante
Sélection

Sélection d'un SYNOP

   Synop:       

  Période à consulter:

Actuelle
Archive     

Relevé

Dernier relevé du SYNOP pour la période choisie

Conditions météo à la station de Vichy/Charmeil (4610N 00324E)    altitude 251m

Date du relevé29/10/2020 à 10:00
Visibilité20km
Vent7 km/h SE
Température12.6 C
Humidité91.8 %
Point de rosée11.3 C
Pression absolue995.3 hPa
Pression relative1025.4 hPa
Variation pression1.8 hPa en hausse régulière ou irrégulière
Neige au sol000 cm (relevé du 29/10/2020 10:00)
Temps présentAucune formation de nuages observée ou observable.

24h

Historique de la période choisie

Certaines stations ne diffusent pas en continu, d'où l'absence possible de données à certaines heures. Le tableau ci-dessous récapitule l'historique des relevés de la station de Vichy/Charmeil.

Date - Heure Base des nuages Visibilité Nébulosité Vent - Secteur Température Humidité Point rosée Pression / Géopotentiel Précipitations Temps
29/10 10:00 20km 7 km/h SE 12.6 C 91.8 % 11.3 C 1025.4 hPa
29/10 09:00 20km 6 km/h S 11.7 C 94.2 % 10.8 C 1024.8 hPa
29/10 08:00 6km 7 km/h S 11.7 C 89.9 % 10.1 C 1024.2 hPa
29/10 07:00 20km 7 km/h SO 12.4 C 84.2 % 9.8 C 1023.5 hPa traces/12h
29/10 06:00 20km 7 km/h S 11.6 C 88.1 % 9.7 C 1022.8 hPa
29/10 05:00 20km 6 km/h S 11.3 C 89.9 % 9.7 C 1022.3 hPa
29/10 04:00 20km 9 km/h S 11.5 C 88.1 % 9.6 C 1022.0 hPa
29/10 03:00 20km 6 km/h SSO 11.6 C 88.1 % 9.7 C 1022.2 hPa
29/10 02:00 20km 7 km/h SSO 11.6 C 88.7 % 9.8 C 1021.7 hPa
29/10 01:00 20km 11 km/h SSO 13.9 C 67.1 % 7.9 C 1021.2 hPa 0 mm/6h
29/10 00:00 20km 9 km/h S 13.5 C 68.0 % 7.7 C 1021.1 hPa
28/10 23:00 20km 7 km/h S 13.1 C 69.8 % 7.7 C 1020.9 hPa
28/10 22:00 20km 7 km/h S 12.4 C 72.0 % 7.5 C 1020.8 hPa
28/10 21:00 20km 7 km/h SSO 13.3 C 70.8 % 8.1 C 1020.4 hPa
28/10 20:00 20km 9 km/h SSO 13.7 C 68.9 % 8.1 C 1019.5 hPa
28/10 19:00 20km 7 km/h S 14.4 C 65.9 % 8.1 C 1018.7 hPa traces/12h
28/10 18:00 20km 6 km/h SSO 14.3 C 65.9 % 8.0 C 1018.3 hPa
28/10 17:00 20km 7 km/h SSO 15.3 C 60.9 % 7.8 C 1017.8 hPa
28/10 16:00 20km 11 km/h SO 16.2 C 59.1 % 8.2 C 1017.4 hPa
28/10 15:00 20km 11 km/h SO 16.8 C 56.9 % 8.2 C 1017.1 hPa
28/10 14:00 20km 2 km/h SSO 14.9 C 75.0 % 10.5 C 1017.2 hPa
28/10 13:00 20km 4 km/h OSO 16.4 C 61.2 % 8.9 C 1017.3 hPa 0 mm/6h
28/10 12:00 20km 6 km/h SO 16.1 C 59.9 % 8.3 C 1017.6 hPa
28/10 11:00 20km 6 km/h SSO 15.8 C 64.0 % 9.0 C 1017.4 hPa

Source: ogimet